Waarnemingen

Advertentie
Mijn weer
Florennes, België (6456): temperatuur & dauwpunt: 30.11.2019 10:00:00 - 06.12.2019 10:00:00 (CET)Florennes, België (6456): windsnelheid & windstoten: 30.11.2019 10:00:00 - 06.12.2019 10:00:00 (CET)Florennes, België (6456): windrichting: 30.11.2019 10:00:00 - 06.12.2019 10:00:00 (CET)Florennes, België (6456): luchtdruk: 30.11.2019 10:00:00 - 06.12.2019 10:00:00 (CET)Florennes, België (6456): zicht: 30.11.2019 10:00:00 - 06.12.2019 10:00:00 (CET)
Datum & Tijd tt [°C] td [°C] ff [km/u] ff [kn] fx [km/u] fx [kn] dd ppp [hPa] vv [km]
06.12.2019 10:00:00 1,8 1,1 29 16 - - Z 1016,2 4,0
06.12.2019 09:00:00 0,8 0,1 18 10 32 18 Z 1016,7 8
06.12.2019 08:00:00 0,0 -0,7 22 12 32 18 Z 1016,8 9
06.12.2019 07:00:00 -0,6 -1,2 18 10 - - Z 1017,2 9
06.12.2019 06:00:00 -0,8 -1,5 29 16 40 21 Z 1017,2 9
06.12.2019 05:00:00 -1,4 -2,0 18 10 32 18 Z 1017,8 9
06.12.2019 04:00:00 -1,8 -2,4 18 10 - - Z 1018,7 7
06.12.2019 03:00:00 -1,9 -2,3 14 8 36 19 Z 1019,6 5
06.12.2019 02:00:00 -1,9 -2,2 25 14 36 19 Z 1019,7 5
06.12.2019 01:00:00 -1,9 -2,3 22 12 - - Z 1021,0 5
06.12.2019 00:00:00 -1,5 -1,6 18 10 32 18 Z 1021,3 3,6
05.12.2019 23:00:00 -1,1 -1,4 18 10 40 21 ZZW 1021,7 4,6
05.12.2019 22:00:00 -0,6 -1,2 29 16 - - Z 1021,3 6
05.12.2019 21:00:00 -0,5 -1,1 14 8 25 14 Z 1021,8 6
05.12.2019 20:00:00 -0,7 -1,0 18 10 25 14 Z 1022,5 3,7
05.12.2019 19:00:00 -1,0 -1,3 14 8 - - Z 1023,1 2,8
05.12.2019 18:00:00 -1,1 -1,7 18 10 25 14 Z 1023,1 4,4
05.12.2019 17:00:00 -1,5 -2,2 11 6 22 12 ZW 1023,3 4,7
05.12.2019 16:00:00 -0,1 -1,6 14 8 - - ZW 1023,2 2,0
05.12.2019 15:00:00 1,1 -0,3 14 8 18 10 W 1022,7 3,0
05.12.2019 14:00:00 2,2 -0,3 11 6 18 10 ZW 1022,3 3,5
05.12.2019 13:00:00 0,8 -0,7 11 6 - - ZZW 1022,7 2,5
05.12.2019 12:00:00 0,3 -1,0 11 6 14 8 ZW 1023,6 2,5
05.12.2019 11:00:00 0,1 -0,4 11 6 14 8 ZW 1023,2 3,0
05.12.2019 10:00:00 -0,6 -1,8 7 4 - - ZZW 1023,8 5
05.12.2019 09:00:00 -1,2 -2,3 7 4 11 6 WZW 1023,8 5
05.12.2019 08:00:00 -1,4 -2,4 4 2 11 6 N 1023,2 4,0
05.12.2019 07:00:00 -2,0 -2,7 7 4 - - ZZO 1022,6 7
05.12.2019 06:00:00 -1,5 -2,3 4 2 7 4 N 1022,6 7
05.12.2019 05:00:00 -0,8 -1,9 2 1 7 4 - 1022,3 8
05.12.2019 04:00:00 -1,7 -2,6 4 2 - - N 1022,6 7
05.12.2019 03:00:00 -0,5 -1,7 4 2 7 4 N 1022,3 11
05.12.2019 02:00:00 0,3 -1,4 4 2 4 2 - 1022,0 4,8
05.12.2019 01:00:00 0,2 -0,9 4 2 - - N 1021,7 16
05.12.2019 00:00:00 -0,3 -0,8 4 2 11 6 N 1022,0 9
04.12.2019 23:00:00 0,6 0,0 7 4 11 6 ZO 1021,2 10
04.12.2019 22:00:00 -0,5 -0,9 4 2 - - N 1021,6 11
04.12.2019 21:00:00 0,2 -0,9 4 2 4 2 N 1021,7 17
04.12.2019 20:00:00 -0,2 -1,5 4 2 4 2 N 1021,2 17
04.12.2019 19:00:00 1,9 -0,3 4 2 - - N 1021,0 19
04.12.2019 18:00:00 2,3 -0,2 4 2 4 2 N 1021,0 20
04.12.2019 17:00:00 3,5 0,2 4 2 7 4 N 1020,7 20
04.12.2019 16:00:00 4,3 0,5 4 2 - - N 1020,7 20
04.12.2019 15:00:00 5,3 -0,1 7 4 7 4 N 1020,2 20
04.12.2019 14:00:00 4,8 -0,1 4 2 11 6 N 1020,5 20
04.12.2019 13:00:00 4,1 0,4 7 4 - - ONO 1021,1 20
04.12.2019 12:00:00 3,7 0,0 11 6 18 10 ONO 1021,7 20
04.12.2019 11:00:00 2,5 -0,3 11 6 14 8 ONO 1022,8 20
04.12.2019 10:00:00 1,4 -0,5 11 6 - - ONO 1023,5 9
04.12.2019 09:00:00 -1,5 -1,8 11 6 7 4 ONO 1024,0 5
04.12.2019 08:00:00 -0,1 -0,9 4 2 7 4 N 1023,8 7
04.12.2019 07:00:00 -1,0 -1,2 7 4 - - ONO 1024,0 11
04.12.2019 06:00:00 -0,6 -1,2 4 2 7 4 N 1024,2 11
04.12.2019 05:00:00 -0,9 -1,2 4 2 7 4 N 1024,2 7
04.12.2019 04:00:00 0,5 -0,1 4 2 - - N 1024,4 15
04.12.2019 03:00:00 -0,2 -0,6 4 2 7 4 N 1025,2 5
04.12.2019 02:00:00 1,5 0,6 7 4 7 4 N 1025,5 15
04.12.2019 01:00:00 0,3 -0,1 5 3 - - O 1026,2 10
04.12.2019 00:00:00 -0,2 -0,7 4 2 4 2 N 1027,0 2,1
03.12.2019 23:00:00 0,6 0,0 4 2 4 2 N 1027,4 12
03.12.2019 22:00:00 1,9 1,0 4 2 - - N 1027,4 20
03.12.2019 21:00:00 2,5 1,4 4 2 7 4 N 1027,5 20
03.12.2019 20:00:00 0,4 0,1 2 1 7 4 - 1028,4 4,8
03.12.2019 19:00:00 2,0 1,7 2 1 - - - 1028,2 1,2
03.12.2019 18:00:00 2,5 1,8 4 2 4 2 N 1028,5 10
03.12.2019 17:00:00 3,7 1,8 4 2 7 4 N 1028,4 8
03.12.2019 16:00:00 5,1 1,9 4 2 - - N 1028,2 8
03.12.2019 15:00:00 5,5 2,3 9 5 14 8 ZZO 1028,2 8
03.12.2019 14:00:00 5,7 3,2 4 2 11 6 - 1028,7 7
03.12.2019 13:00:00 4,4 4,4 4 2 - - N 1029,5 2,2
03.12.2019 12:00:00 3,8 3,8 4 2 7 4 N 1030,2 0,7
03.12.2019 11:00:00 2,7 2,7 4 2 7 4 N 1031,2 0,1
03.12.2019 10:00:00 2,0 1,9 4 2 - - N 1031,0 0,1
03.12.2019 09:00:00 1,1 0,9 2 1 4 2 - 1031,2 0,7
03.12.2019 08:00:00 0,4 0,3 4 2 4 2 N 1030,9 0,4
03.12.2019 07:00:00 2,4 2,3 4 2 - - - 1030,5 3,4
03.12.2019 06:00:00 1,8 1,8 4 2 7 4 N 1030,7 -
03.12.2019 05:00:00 3,0 3,0 7 4 7 4 W 1030,9 1,0
03.12.2019 04:00:00 3,5 3,4 4 2 - - N 1030,9 0,4
03.12.2019 03:00:00 3,7 3,7 7 4 14 8 W 1031,0 0,4
03.12.2019 02:00:00 3,9 3,9 7 4 14 8 W 1030,7 0,2
03.12.2019 01:00:00 4,0 4,0 7 4 - - N 1030,9 0,8
03.12.2019 00:00:00 4,3 4,2 7 4 14 8 WNW 1030,9 2,0
02.12.2019 23:00:00 4,0 4,0 7 4 11 6 WNW 1030,5 0,4
02.12.2019 22:00:00 4,0 4,0 7 4 - - W 1030,7 0,2
02.12.2019 21:00:00 3,9 3,9 7 4 14 8 WNW 1030,5 0,6
02.12.2019 20:00:00 3,9 3,9 7 4 14 8 WNW 1030,2 1,0
02.12.2019 19:00:00 3,5 3,5 7 4 - - W 1030,0 0,4
02.12.2019 18:00:00 3,4 3,3 7 4 11 6 W 1029,7 1,2
02.12.2019 17:00:00 3,2 3,1 7 4 11 6 W 1029,7 1,8
02.12.2019 16:00:00 3,4 3,0 11 6 - - W 1029,7 4,0
02.12.2019 15:00:00 3,3 2,8 11 6 14 8 WZW 1029,0 4,0
02.12.2019 14:00:00 3,2 2,5 7 4 11 6 W 1029,4 4,2
02.12.2019 13:00:00 2,4 1,8 7 4 - - WZW 1029,5 3,0
02.12.2019 12:00:00 1,4 1,0 7 4 11 6 WZW 1029,7 3,0
02.12.2019 11:00:00 0,9 0,4 4 2 7 4 N 1029,7 3,0
02.12.2019 10:00:00 -0,5 -0,6 4 2 - - N 1029,4 3,0
02.12.2019 09:00:00 -1,1 -1,5 4 2 7 4 N 1028,5 3,0
02.12.2019 08:00:00 -2,0 -2,3 7 4 7 4 ZW 1028,0 4,0
02.12.2019 07:00:00 -1,7 -2,2 7 4 - - WZW 1027,8 7
02.12.2019 06:00:00 -1,2 -1,9 4 2 7 4 N 1027,0 10
02.12.2019 05:00:00 -2,2 -2,8 4 2 7 4 N 1026,7 7
02.12.2019 04:00:00 -2,1 -2,7 4 2 - - N 1026,2 7
02.12.2019 03:00:00 -1,5 -2,3 4 2 11 6 N 1025,7 12
02.12.2019 02:00:00 -2,0 -2,7 7 4 14 8 N 1025,0 9
02.12.2019 01:00:00 -1,8 -2,4 11 6 - - N 1024,7 7
02.12.2019 00:00:00 -1,0 -1,8 14 8 25 14 N 1024,4 8
01.12.2019 23:00:00 -0,8 -1,5 15 8 22 12 N 1023,6 7
01.12.2019 22:00:00 -0,2 -1,1 14 8 - - N 1023,0 9
01.12.2019 21:00:00 0,6 -0,9 11 6 25 14 N 1022,0 17
01.12.2019 20:00:00 1,2 -0,5 18 10 25 14 N 1021,7 20
01.12.2019 19:00:00 1,2 -0,7 14 8 - - N 1021,0 16
01.12.2019 18:00:00 1,2 -0,6 11 6 18 10 NNO 1020,0 20
01.12.2019 17:00:00 0,5 -0,1 7 4 18 10 NNO 1019,5 7
01.12.2019 16:00:00 1,3 -0,5 11 6 - - N 1018,6 20
01.12.2019 15:00:00 1,1 -0,2 14 8 22 12 NNO 1018,2 14
01.12.2019 14:00:00 1,3 -0,5 11 6 22 12 NNO 1018,6 19
01.12.2019 13:00:00 1,2 -0,9 11 6 - - NO 1018,7 20
01.12.2019 12:00:00 1,0 -0,6 11 6 18 10 NNO 1018,6 19
01.12.2019 11:00:00 0,5 -0,9 14 8 22 12 NNO 1018,7 15
01.12.2019 10:00:00 0,2 -1,5 11 6 - - NO 1018,1 19
01.12.2019 09:00:00 0,0 -1,5 11 6 22 12 NO 1017,7 16
01.12.2019 08:00:00 0,0 -1,6 14 8 29 16 NNO 1017,1 15
01.12.2019 07:00:00 0,2 -1,6 22 12 - - NO 1017,1 16
01.12.2019 06:00:00 0,3 -1,6 18 10 25 14 NNO 1017,2 20
01.12.2019 05:00:00 0,4 -1,6 18 10 25 14 NO 1017,6 20
01.12.2019 04:00:00 0,4 -1,4 14 8 - - NO 1018,6 20
01.12.2019 03:00:00 0,6 -1,3 11 6 18 10 NO 1019,1 20
01.12.2019 02:00:00 0,4 -1,1 11 6 18 10 ONO 1019,5 20
01.12.2019 01:00:00 0,6 -0,9 14 8 - - ONO 1020,0 20
01.12.2019 00:00:00 0,3 -0,8 14 8 22 12 ONO 1020,3 19
30.11.2019 23:00:00 0,5 -0,5 14 8 18 10 NO 1020,6 19
30.11.2019 22:00:00 0,5 -0,5 7 4 - - ONO 1021,3 16
30.11.2019 21:00:00 0,0 -0,7 14 8 14 8 NO 1022,2 13
30.11.2019 20:00:00 0,2 -0,2 7 4 14 8 O 1022,6 12
30.11.2019 19:00:00 0,8 0,1 4 2 - - N 1022,6 17
30.11.2019 18:00:00 0,2 0,1 11 6 14 8 ONO 1022,5 3,5
30.11.2019 17:00:00 1,1 1,1 7 4 11 6 ONO 1022,7 10
30.11.2019 16:00:00 1,7 1,6 9 5 - - ONO 1023,0 1,2
30.11.2019 15:00:00 3,4 2,0 11 6 14 8 ONO 1022,7 17
30.11.2019 14:00:00 3,1 1,9 11 6 14 8 ONO 1023,5 17
30.11.2019 13:00:00 2,8 2,0 7 4 - - NO 1023,8 13
30.11.2019 12:00:00 2,4 0,9 4 2 7 4 N 1024,4 20
30.11.2019 11:00:00 -0,7 -0,7 8 4 7 4 ONO 1025,0 0,4
30.11.2019 10:00:00 -0,8 -1,1 4 2 - - N 1024,7 7

tt = temperatuur
td = dauwpunt
ff = windsnelheid
fx = windstoten
dd = windrichting
ppp = luchtdruk
vv = zicht

Weerstations in de omgeving